DW9923 Weather Reports


Display with metric or nautical units.
time (UTC)temp
F
wind
direction
speed
MPH
gust
MPH
rain 1hr
in
rain 24hr
in
rain mn
in
humidity
%
barometer
mb
20260504185852 70 300 2.0 6.0 0.00 0.00 0.00 47
20260504184711 69 299 1.0 5.0 0.00 0.00 0.00 49
20260504184202 68 290 1.0 6.0 0.00 0.00 0.00 50
20260504183701 68 258 1.0 6.0 0.00 0.00 0.00 50
20260504183209 69 287 1.0 6.0 0.00 0.00 0.00 50
20260504182717 69 19 0.0 6.0 0.00 0.00 0.00 50
20260504181539 69 302 0.0 4.0 0.00 0.00 0.00 48
20260504181038 69 302 0.0 4.0 0.00 0.00 0.00 50
20260504180522 69 302 0.0 10.0 0.00 0.00 0.00 51
20260504180010 69 302 1.0 10.0 0.00 0.00 0.00 52
20260504174856 69 300 1.0 10.0 0.00 0.00 0.00 51
20260504174343 69 291 1.0 6.0 0.00 0.00 0.00 50
20260504173836 68 291 1.0 6.0 0.00 0.00 0.00 55
20260504173339 68 304 1.0 6.0 0.00 0.00 0.00 53
20260504172841 68 296 0.0 2.0 0.00 0.00 0.00 52
20260504172329 68 296 0.0 3.0 0.00 0.00 0.00 53
20260504171220 67 169 0.0 1.0 0.00 0.00 0.00 57
20260504170727 66 168 0.0 3.0 0.00 0.00 0.00 57
20260504170235 66 281 0.0 3.0 0.00 0.00 0.00 58
20260504150656 51 281 0.0 0.0 0.00 0.00 0.00 93
20260504150201 51 281 0.0 0.0 0.00 0.00 0.00 93
20260504141025 48 281 0.0 0.0 0.00 0.00 0.00 90
20260504130736 49 281 0.0 0.0 0.00 0.00 0.00 88
20260504130222 49 281 0.0 0.0 0.00 0.00 0.00 88
20260504110308 54 281 0.0 0.0 0.00 0.00 0.00 84
20260504100147 55 281 0.0 0.0 0.00 0.00 0.00 82
20260504081651 57 281 0.0 0.0 0.00 0.01 0.00 81
20260504070149 58 281 0.0 0.0 0.00 0.01 0.00 79
20260504050721 58 281 0.0 0.0 0.00 0.01 0.01 76
20260504050205 58 281 0.0 0.0 0.00 0.01 0.01 76
20260504045651 58 281 0.0 0.0 0.00 0.01 0.01 76
20260504045138 58 281 0.0 0.0 0.00 0.01 0.01 76
20260504044636 58 281 0.0 0.0 0.00 0.01 0.01 76
20260504044131 58 281 0.0 0.0 0.00 0.01 0.01 76
20260504043633 59 281 0.0 0.0 0.00 0.01 0.01 75
20260504041849 59 281 0.0 0.0 0.00 0.01 0.01 74
20260504041346 59 281 0.0 0.0 0.00 0.01 0.01 74
20260504040853 59 281 0.0 0.0 0.00 0.01 0.01 74
20260504035116 59 281 0.0 0.0 0.00 0.01 0.01 74
20260504034602 59 281 0.0 0.0 0.00 0.01 0.01 74
20260504034043 59 281 0.0 2.0 0.00 0.01 0.01 74
20260504032926 59 281 0.0 0.0 0.00 0.01 0.01 74
20260504032414 59 281 0.0 3.0 0.00 0.01 0.01 74
20260504031910 59 281 0.0 0.0 0.00 0.01 0.01 74
20260504031405 60 281 0.0 0.0 0.00 0.01 0.01 74
20260504030231 60 281 0.0 0.0 0.00 0.01 0.01 74
20260504025713 60 281 0.0 0.0 0.00 0.01 0.01 74
20260504023944 60 281 0.0 0.0 0.00 0.01 0.01 73
20260504023429 60 281 0.0 0.0 0.00 0.01 0.01 73
20260504022913 61 281 0.0 1.0 0.00 0.01 0.01 73
20260504021756 61 281 0.0 0.0 0.00 0.01 0.01 72
20260504020632 61 281 0.0 0.0 0.00 0.01 0.01 72
20260504020141 62 281 0.0 0.0 0.00 0.01 0.01 72
20260504015640 62 281 0.0 0.0 0.00 0.01 0.01 72
20260504015144 62 281 0.0 5.0 0.00 0.01 0.01 72
20260504014640 62 300 0.0 3.0 0.00 0.01 0.01 71
20260504014134 63 300 0.0 0.0 0.00 0.01 0.01 70
20260504013643 63 300 0.0 0.0 0.00 0.01 0.01 70
20260504013135 63 300 0.0 0.0 0.00 0.01 0.01 69
20260504012637 63 300 0.0 0.0 0.00 0.01 0.01 69
20260504012131 63 300 0.0 0.0 0.00 0.01 0.01 69
20260504011639 63 300 0.0 0.0 0.00 0.01 0.01 68
20260504010521 64 300 0.0 3.0 0.00 0.01 0.01 66
20260504010022 64 300 0.0 3.0 0.00 0.01 0.01 66
20260504005520 64 300 0.0 4.0 0.00 0.01 0.01 65
20260504004959 65 211 0.0 4.0 0.00 0.01 0.01 64
20260504004444 65 302 0.0 8.0 0.00 0.01 0.01 63
20260504003925 65 310 1.0 8.0 0.00 0.01 0.01 61
20260504003414 66 311 2.0 8.0 0.00 0.01 0.01 61
20260504002855 66 305 0.0 8.0 0.00 0.01 0.01 59
20260504001715 65 199 0.0 0.0 0.00 0.01 0.01 60
20260504001157 65 200 0.0 1.0 0.00 0.01 0.01 60
20260504000700 65 199 0.0 0.0 0.00 0.01 0.01 59
20260504000151 65 205 1.0 0.0 0.00 0.01 0.01 60
20260503235014 67 193 0.0 5.0 0.00 0.01 0.01 58
20260503234506 67 185 0.0 0.0 0.00 0.01 0.01 58
20260503233341 67 188 1.0 0.0 0.00 0.01 0.01 58
20260503232840 67 187 0.0 1.0 0.00 0.01 0.01 58
20260503232336 67 271 0.0 4.0 0.00 0.01 0.01 59
20260503231835 67 271 0.0 0.0 0.00 0.01 0.01 58
20260503230700 68 271 1.0 6.0 0.00 0.01 0.01 58
20260503230158 68 271 0.0 3.0 0.00 0.01 0.01 57
20260503225651 68 271 0.0 9.0 0.00 0.01 0.01 55
20260503225157 68 276 0.0 1.0 0.00 0.01 0.01 56
20260503224042 68 278 0.0 0.0 0.00 0.01 0.01 58
20260503222905 68 279 0.0 2.0 0.00 0.01 0.01 58
20260503222408 68 279 0.0 0.0 0.00 0.01 0.01 61
20260503221852 68 279 0.0 0.0 0.00 0.01 0.01 60
20260503221333 67 279 0.0 4.0 0.00 0.01 0.01 62
20260503220220 67 279 0.0 0.0 0.00 0.01 0.01 62
20260503215719 66 279 0.0 2.0 0.00 0.01 0.01 65
20260503215213 65 279 0.0 0.0 0.00 0.01 0.01 64
20260503214708 65 279 0.0 0.0 0.00 0.01 0.01 65
20260503214156 65 273 0.0 2.0 0.00 0.01 0.01 65
20260503213700 65 273 0.0 6.0 0.00 0.01 0.01 66
20260503213157 64 263 0.0 0.0 0.00 0.01 0.01 66
20260503212646 64 263 0.0 2.0 0.00 0.01 0.01 66
20260503212130 64 263 0.0 5.0 0.00 0.01 0.01 66
20260503211611 64 246 0.0 0.0 0.00 0.01 0.01 66
20260503211052 64 246 0.0 0.0 0.00 0.01 0.01 66
20260503205929 64 211 0.0 0.0 0.00 0.01 0.01 65
20260503205438 64 211 0.0 0.0 0.00 0.01 0.01 65
20260503204937 64 211 0.0 0.0 0.00 0.01 0.01 65
20260503204440 65 211 0.0 1.0 0.00 0.01 0.01 66
20260503203946 65 211 0.0 0.0 0.00 0.01 0.01 66
20260503203456 65 211 0.0 0.0 0.00 0.01 0.01 66
20260503202944 64 211 0.0 0.0 0.00 0.01 0.01 68
20260503202436 64 211 0.0 0.0 0.00 0.01 0.01 69
20260503201928 63 211 0.0 0.0 0.00 0.01 0.01 69
20260503201414 63 211 0.0 3.0 0.00 0.01 0.01 70
20260503200908 62 210 0.0 0.0 0.00 0.01 0.01 70
20260503200358 62 210 0.0 0.0 0.00 0.01 0.01 72
20260503195219 62 210 0.0 0.0 0.00 0.01 0.01 73
20260503194715 62 210 0.0 0.0 0.00 0.01 0.01 73
20260503194159 62 210 0.0 0.0 0.00 0.01 0.01 73
20260503193647 62 210 0.0 0.0 0.00 0.01 0.01 73
20260503192520 62 210 0.0 0.0 0.00 0.01 0.01 74
20260503192025 62 210 0.0 0.0 0.00 0.01 0.01 73
20260503191522 62 210 0.0 0.0 0.00 0.01 0.01 74
20260503191014 62 203 0.0 0.0 0.00 0.01 0.01 74